[[{"header":{"parameterUnit":"m.s-1","parameterCategory":1,"la1":30.2991,"la2":30.254,"lo1":-89.0895,"lo2":-89.0444,"dy":0.0017,"dx":0.0017,"nx":28,"ny":28,"refTime":"2024-03-27T09:00:00:Z","depth":0,"parameterNumber":2,"parameterNumberName":"U-component_of_WINDS"},"data":[0,0,0,0,0,0,0,0,0,0,0,0,0,0,0,0,0,0,0,0,0,0,0,0,0,0,0,0,0,0,0,0,0,0,0,0,0,0,0,0,0,0,0,0,0,0,0,0,0,0,0,0,0,0,0,0,0,0,-2.3257,-2.3256,0,-2.3238,-2.3238,-2.3238,-2.3101,-2.3098,-2.3094,-2.3091,-2.3075,-2.3078,-2.308,0,0,0,0,0,0,0,0,0,0,0,0,0,-2.3176,-2.3178,-2.3257,-2.3256,-2.3256,-2.3238,-2.3238,-2.3238,-2.3102,-2.3098,-2.3094,-2.309,-2.3074,-2.3077,-2.3081,0,0,0,0,0,0,0,0,0,0,0,0,0,-2.319,-2.3179,-2.3257,-2.3186,-2.318,-2.3238,-2.3238,-2.3238,-2.3103,-2.3098,-2.3093,-2.3088,-2.3073,-2.3077,-2.3081,-2.3207,0,0,-2.3094,-2.3095,0,0,0,0,0,0,0,0,-2.3189,-2.3193,-2.3197,-2.3191,-2.3184,-2.3167,-2.3203,-2.3227,-2.3104,-2.3132,-2.3091,-2.3085,-2.311,-2.3111,-2.3118,-2.3206,-2.3205,-2.3094,-2.3096,-2.3098,-2.3099,0,0,0,0,0,0,0,-2.3189,-2.3193,-2.3249,-2.3197,-2.3189,-2.3156,-2.3152,-2.3207,-2.315,-2.3129,-2.3119,-2.3119,-2.3105,-2.3115,-2.3117,-2.3205,-2.3094,-2.3097,-2.31,-2.3101,-2.3396,-2.3401,0,0,0,0,0,0,-2.3197,-2.3193,-2.325,-2.3249,-2.3174,-2.3162,-2.3157,-2.3177,-2.3148,-2.3139,-2.3123,-2.3112,-2.311,-2.3112,-2.3116,-2.3261,-2.3098,-2.3102,-2.3104,-2.339,-2.3397,-2.3403,0,0,0,0,0,0,-2.3196,-2.3203,-2.3251,-2.3218,-2.3222,-2.3168,-2.3192,-2.318,-2.3189,-2.3144,-2.3133,-2.3143,-2.3106,-2.311,-2.3185,-2.3259,-2.3104,-2.3107,-2.3384,-2.3392,-2.34,-2.3554,0,0,0,0,0,0,-2.3194,-2.3204,-2.3251,-2.322,-2.3224,-2.332,-2.3196,-2.3183,-2.3196,-2.3182,-2.316,-2.3151,-2.3103,-2.318,-2.3189,-2.3262,-2.3111,-2.3377,-2.3388,-2.3397,-2.3542,-2.3566,-2.3587,0,0,0,0,0,-2.3192,-2.3295,-2.3254,-2.3261,-2.3281,-2.3325,-2.3327,-2.3268,-2.3202,-2.3249,-2.322,-2.3152,-2.3249,-2.3189,-2.3198,-2.3273,-2.3372,-2.3385,-2.3396,-2.3532,-2.3562,-2.3587,0,0,0,0,0,0,-2.3337,-2.329,-2.3243,-2.334,-2.3337,-2.3301,-2.3359,-2.3301,-2.3318,-2.3304,-2.3231,-2.3227,-2.3314,-2.33,-2.3234,-2.3393,-2.3299,-2.3314,-2.3399,-2.3427,-2.3449,-2.345,-2.3114,0,0,0,0,0,-2.338,-2.3418,-2.3376,-2.3465,-2.3466,-2.3413,-2.343,-2.3385,-2.3379,-2.3378,-2.3354,-2.3352,-2.3382,-2.3403,-2.3428,-2.3539,-2.3533,-2.3595,-2.3618,-2.3636,-2.365,-2.3708,-2.3736,-2.3442,-2.3442,-2.3442,0,0,-2.347,-2.3449,-2.3478,-2.3494,-2.3486,-2.3528,-2.3413,-2.3463,-2.3493,-2.3385,-2.3454,-2.3438,-2.343,-2.3524,-2.3564,-2.3516,-2.373,-2.3652,-2.3667,-2.3671,-2.3724,-2.3752,-2.3776,-2.3451,-2.3449,-2.3448,0,0,-2.3655,-2.3643,-2.3716,-2.3711,-2.37,-2.3664,-2.3682,-2.3655,-2.3639,-2.3707,-2.3627,-2.3663,-2.3716,-2.3714,-2.3721,-2.3905,-2.3843,-2.3915,-2.4033,-2.4091,-2.4114,-2.4134,-2.4201,-2.4225,-2.3929,-2.3929,-2.393,0,-2.3768,-2.3828,-2.3761,-2.3816,-2.3826,-2.3729,-2.3803,-2.3801,-2.38,-2.381,-2.3755,-2.3819,-2.3808,-2.39,-2.3945,-2.3953,-2.3972,-2.3918,-2.4116,-2.4135,-2.4153,-2.4216,-2.4241,-2.3938,-2.3937,-2.3936,-2.3935,0,-2.3968,-2.401,-2.4071,-2.4071,-2.4088,-2.4152,-2.4096,-2.4121,-2.4074,-2.4045,-2.4116,-2.4098,-2.4118,-2.4136,-2.4092,-2.4223,-2.4193,-2.4129,-2.4032,-2.4191,-2.4249,-2.4272,-2.3951,-2.3948,-2.3945,-2.3943,0,0,-2.4245,-2.4207,-2.4231,-2.423,-2.4211,-2.4243,-2.4303,-2.4322,-2.4345,-2.4347,-2.4397,-2.4443,-2.4383,-2.4391,-2.4345,-2.4395,-2.4543,-2.4324,-2.4323,-2.4366,-2.4687,-2.4737,-2.4765,-2.4502,-2.4506,-2.4509,-2.4688,0,-2.4423,-2.4523,-2.4465,-2.4573,-2.4612,-2.4521,-2.4573,-2.4568,-2.4542,-2.4571,-2.4542,-2.4577,-2.4495,-2.4498,-2.4544,-2.4516,-2.4607,-2.4502,-2.4548,-2.455,-2.4553,-2.4795,-2.4847,-2.5017,-2.471,-2.4714,-2.4717,0,-2.4645,-2.4656,-2.4769,-2.4742,-2.4756,-2.4805,-2.4817,-2.4846,-2.4839,-2.4816,-2.4824,-2.4766,-2.4823,-2.4728,-2.4807,-2.4737,-2.4752,-2.4741,-2.4746,-2.4749,-2.4644,-2.4806,-2.5069,-2.5095,-2.4751,-2.4749,-2.4746,0,-2.4836,-2.488,-2.4952,-2.4954,-2.4926,-2.4962,-2.4952,-2.4939,-2.4954,-2.4965,-2.4974,-2.4992,-2.5002,-2.5018,-2.4967,-2.4902,-2.5053,-2.4953,-2.5037,-2.5039,-2.5074,-2.5072,-2.5345,-2.5083,-2.5082,-2.5082,-2.5081,0,-2.5042,-2.5115,-2.5038,-2.5083,-2.5162,-2.5095,-2.5175,-2.5155,-2.5144,-2.5184,-2.5106,-2.5146,-2.5075,-2.5107,-2.5068,-2.514,-2.5145,-2.5129,-2.5117,-2.5136,-2.5138,-2.5146,-2.5133,-2.5089,-2.5087,-2.5086,-2.5085,0,-2.527,-2.5221,-2.5295,-2.5261,-2.5254,-2.5314,-2.5285,-2.5326,-2.5294,-2.5346,-2.5354,-2.5305,-2.5339,-2.5289,-2.5318,-2.5291,-2.5391,-2.5361,-2.5393,-2.5385,-2.5472,-2.5464,-2.5759,-2.5794,-2.551,-2.5512,-2.5515,0,-2.5405,-2.5458,-2.543,-2.5451,-2.5445,-2.548,-2.5494,-2.543,-2.5449,-2.5444,-2.5486,-2.5513,-2.5532,-2.5591,-2.5558,-2.558,-2.5551,-2.5653,-2.5554,-2.5571,-2.5553,-2.5551,-2.5556,-2.5673,-2.5677,-2.5679,-2.5682,0,-2.5649,-2.5623,-2.5646,-2.5662,-2.5681,-2.5691,-2.5694,-2.5716,-2.5649,-2.5674,-2.5707,-2.5722,-2.5751,-2.578,-2.5793,-2.5783,-2.5723,-2.5713,-2.5734,-2.5754,-2.577,-2.5763,-2.5449,-2.5707,-2.5704,-2.5702,-2.5701,-2.57,-2.5835,-2.5878,-2.5865,-2.5894,-2.589,-2.5895,-2.5932,-2.5904,-2.5931,-2.5949,-2.591,-2.5953,-2.5944,-2.5956,-2.5953,-2.5987,-2.5942,-2.5972,-2.598,-2.5988,-2.6002,-2.5765,-2.5989,-2.5988,-2.5987,-2.5987,-2.5986,0,-2.6076,-2.6063,-2.609,-2.6097,-2.612,-2.6059,-2.606,-2.6084,-2.6123,-2.6119,-2.6139,-2.6178,-2.6205,-2.6175,-2.6197,-2.623,-2.6202,-2.6238,-2.6235,-2.6234,-2.604,-2.602,-2.6259,-2.6259,-2.6259,-2.6259,-2.6259,-2.6259,-2.6204,-2.6274,-2.6246,-2.6314,-2.63,-2.6341,-2.6347,-2.6352,-2.6348,-2.6395,-2.6417,-2.6397,-2.6382,-2.6403,-2.6425,-2.6415,-2.6428,-2.6473,-2.6454,-2.6274,-2.6247,-2.6222,-2.6203,-2.6476,-2.6477,-2.6644,-2.6646,-2.6647]},{"header":{"parameterUnit":"m.s-1","parameterCategory":1,"la1":30.2991,"la2":30.254,"lo1":-89.0895,"lo2":-89.0444,"dy":0.0017,"dx":0.0017,"nx":28,"ny":28,"refTime":"2024-03-27T09:00:00:Z","depth":0,"parameterNumber":3,"parameterNumberName":"V-component_of_WINDS"},"data":[0,0,0,0,0,0,0,0,0,0,0,0,0,0,0,0,0,0,0,0,0,0,0,0,0,0,0,0,0,0,0,0,0,0,0,0,0,0,0,0,0,0,0,0,0,0,0,0,0,0,0,0,0,0,0,0,0,0,-1.5664,-1.5665,0,-1.5771,-1.5772,-1.5773,-1.5817,-1.5817,-1.5817,-1.5817,-1.5924,-1.5927,-1.593,0,0,0,0,0,0,0,0,0,0,0,0,0,-1.5497,-1.55,-1.5664,-1.5665,-1.5667,-1.577,-1.5772,-1.5773,-1.5817,-1.5817,-1.5817,-1.5817,-1.5923,-1.5927,-1.5931,0,0,0,0,0,0,0,0,0,0,0,0,0,-1.5583,-1.5501,-1.5664,-1.5701,-1.5706,-1.577,-1.5772,-1.5774,-1.5817,-1.5817,-1.5817,-1.5817,-1.5922,-1.5927,-1.5931,-1.5966,0,0,-1.5945,-1.5947,0,0,0,0,0,0,0,0,-1.5578,-1.5589,-1.5694,-1.5699,-1.5704,-1.578,-1.5753,-1.5838,-1.5818,-1.5775,-1.5817,-1.5816,-1.5877,-1.5885,-1.5906,-1.5971,-1.5975,-1.5946,-1.5948,-1.595,-1.5952,0,0,0,0,0,0,0,-1.5572,-1.5585,-1.5706,-1.5696,-1.5702,-1.5712,-1.5724,-1.5769,-1.5826,-1.5779,-1.5782,-1.5794,-1.5879,-1.5901,-1.5908,-1.5977,-1.5945,-1.595,-1.5952,-1.5954,-1.6076,-1.6076,0,0,0,0,0,0,-1.556,-1.558,-1.5703,-1.5709,-1.5639,-1.5715,-1.5729,-1.5756,-1.5826,-1.5836,-1.5794,-1.5796,-1.5893,-1.5903,-1.5912,-1.5957,-1.595,-1.5955,-1.5957,-1.6075,-1.6076,-1.6076,0,0,0,0,0,0,-1.5557,-1.5571,-1.5698,-1.5646,-1.5663,-1.5719,-1.5749,-1.5758,-1.578,-1.5838,-1.5848,-1.5806,-1.5893,-1.5906,-1.5952,-1.5962,-1.5957,-1.5961,-1.6075,-1.6075,-1.6076,-1.6048,0,0,0,0,0,0,-1.5552,-1.5569,-1.5583,-1.5646,-1.5665,-1.5737,-1.575,-1.5761,-1.5788,-1.5791,-1.5852,-1.5861,-1.5894,-1.5945,-1.5957,-1.5968,-1.5964,-1.6074,-1.6075,-1.6076,-1.6048,-1.6047,-1.6047,0,0,0,0,0,-1.5546,-1.5571,-1.5584,-1.5599,-1.5684,-1.5737,-1.5749,-1.5786,-1.5789,-1.5803,-1.584,-1.5859,-1.5959,-1.5949,-1.5963,-1.5976,-1.6074,-1.6075,-1.6076,-1.6048,-1.6048,-1.6047,0,0,0,0,0,0,-1.5508,-1.558,-1.5595,-1.5641,-1.5683,-1.5745,-1.5764,-1.5784,-1.5826,-1.5827,-1.5871,-1.5884,-1.5927,-1.5956,-1.5944,-1.6013,-1.6018,-1.6022,-1.5992,-1.5992,-1.5991,-1.5983,-1.5968,0,0,0,0,0,-1.5505,-1.5543,-1.5603,-1.5638,-1.5659,-1.5708,-1.5732,-1.5758,-1.5802,-1.582,-1.586,-1.5903,-1.5943,-1.5969,-1.601,-1.6052,-1.6066,-1.6068,-1.6067,-1.6066,-1.6069,-1.6093,-1.6095,-1.608,-1.608,-1.608,0,0,-1.55,-1.5544,-1.5565,-1.5632,-1.5667,-1.5705,-1.5722,-1.5761,-1.5789,-1.5826,-1.5872,-1.5903,-1.5953,-1.5998,-1.6019,-1.6023,-1.6076,-1.6068,-1.6067,-1.607,-1.6095,-1.6096,-1.6097,-1.6081,-1.6081,-1.608,0,0,-1.5509,-1.5546,-1.5579,-1.5614,-1.5668,-1.57,-1.5708,-1.5767,-1.5789,-1.5836,-1.5864,-1.5898,-1.5967,-1.6002,-1.6028,-1.605,-1.6069,-1.6062,-1.6059,-1.6082,-1.6083,-1.6084,-1.6092,-1.6094,-1.6065,-1.6065,-1.6065,0,-1.5496,-1.5554,-1.5594,-1.5631,-1.566,-1.5695,-1.5729,-1.5761,-1.5824,-1.5843,-1.5846,-1.5934,-1.597,-1.6023,-1.6028,-1.6049,-1.6059,-1.6055,-1.608,-1.6082,-1.6083,-1.6091,-1.6094,-1.6063,-1.6063,-1.6064,-1.6064,0,-1.5534,-1.5574,-1.5594,-1.5655,-1.5686,-1.5721,-1.5766,-1.5793,-1.5815,-1.5847,-1.5894,-1.5939,-1.5989,-1.6004,-1.6026,-1.606,-1.606,-1.6071,-1.6077,-1.6083,-1.6091,-1.6094,-1.6062,-1.6062,-1.6062,-1.6063,0,0,-1.5523,-1.5606,-1.5612,-1.564,-1.5701,-1.5733,-1.5769,-1.5819,-1.584,-1.5883,-1.5915,-1.5972,-1.5983,-1.6013,-1.6039,-1.606,-1.6074,-1.6068,-1.607,-1.6068,-1.6113,-1.6105,-1.6108,-1.6087,-1.6088,-1.6088,-1.6109,0,-1.5541,-1.5608,-1.5645,-1.5697,-1.5734,-1.5768,-1.58,-1.584,-1.5871,-1.5906,-1.594,-1.598,-1.5991,-1.601,-1.6031,-1.6067,-1.6084,-1.6066,-1.6116,-1.6118,-1.6103,-1.6112,-1.6103,-1.6121,-1.6113,-1.6113,-1.6114,0,-1.557,-1.5612,-1.5668,-1.5725,-1.5742,-1.577,-1.5818,-1.5852,-1.5898,-1.5919,-1.5952,-1.5978,-1.6018,-1.6021,-1.6075,-1.6063,-1.6085,-1.6106,-1.6108,-1.6114,-1.6116,-1.6118,-1.6127,-1.613,-1.6119,-1.6119,-1.6118,0,-1.5556,-1.5627,-1.5669,-1.5692,-1.5759,-1.5778,-1.5807,-1.5853,-1.5881,-1.5923,-1.5941,-1.5986,-1.6011,-1.6046,-1.6084,-1.6082,-1.6134,-1.614,-1.6152,-1.6151,-1.6162,-1.6161,-1.6175,-1.6176,-1.6176,-1.6176,-1.6176,0,-1.5572,-1.5604,-1.5664,-1.569,-1.5728,-1.5769,-1.5805,-1.5837,-1.5877,-1.591,-1.5941,-1.5971,-1.6019,-1.6055,-1.6084,-1.6125,-1.6136,-1.6153,-1.6161,-1.6151,-1.6148,-1.6166,-1.6166,-1.6177,-1.6177,-1.6177,-1.6177,0,-1.5562,-1.5604,-1.5652,-1.5712,-1.5728,-1.5753,-1.5803,-1.583,-1.5862,-1.5902,-1.5914,-1.5965,-1.6008,-1.6049,-1.6107,-1.6127,-1.6167,-1.6177,-1.6152,-1.6156,-1.6166,-1.6164,-1.6191,-1.6197,-1.6194,-1.6194,-1.6194,0,-1.557,-1.5596,-1.5658,-1.5682,-1.571,-1.5749,-1.5777,-1.5819,-1.5847,-1.5902,-1.5921,-1.5967,-1.6006,-1.6073,-1.6115,-1.6159,-1.617,-1.6177,-1.6177,-1.6166,-1.617,-1.6168,-1.6171,-1.6176,-1.6176,-1.6175,-1.6175,0,-1.5578,-1.5597,-1.5637,-1.5683,-1.5716,-1.5754,-1.5794,-1.5812,-1.5861,-1.5891,-1.5936,-1.5966,-1.6025,-1.607,-1.6119,-1.6148,-1.617,-1.6175,-1.618,-1.617,-1.6154,-1.6163,-1.6149,-1.6174,-1.6174,-1.6174,-1.6174,-1.6174,-1.5577,-1.5602,-1.565,-1.5692,-1.5727,-1.5763,-1.579,-1.5826,-1.5864,-1.5916,-1.5938,-1.5984,-1.6029,-1.6097,-1.6126,-1.6162,-1.6167,-1.6174,-1.6176,-1.6177,-1.6175,-1.6148,-1.6171,-1.6171,-1.6171,-1.6171,-1.6171,0,-1.5587,-1.5619,-1.5658,-1.5713,-1.5746,-1.5764,-1.5809,-1.5836,-1.5875,-1.5916,-1.5954,-1.6005,-1.6049,-1.6093,-1.614,-1.616,-1.6171,-1.617,-1.6169,-1.6175,-1.6168,-1.6159,-1.616,-1.616,-1.616,-1.616,-1.616,-1.616,-1.5596,-1.5639,-1.5663,-1.5723,-1.5755,-1.58,-1.5824,-1.5857,-1.589,-1.5946,-1.5983,-1.6012,-1.6054,-1.6103,-1.6144,-1.6156,-1.6172,-1.6168,-1.6183,-1.6175,-1.6176,-1.6177,-1.6168,-1.6171,-1.6171,-1.6187,-1.6187,-1.6188]}]]